ABI298 GOBD-FNBJ

Flight info

Callsign ABI298
Flight time N/A
Altitude 31000
Route SISNU UA601 EBSUD/N0497F330 UA601 TYE DCT LIREX UR603 STM UA400 NATAR
Aircraft B77L/H-SDE1E2E3FGHIJ2J3J4J5M1RWXYZ/LB1D1

Departure

Time 2026-05-01 08:44
Airport Blaise Diagne International Airport (GOBD)

Arrival

Time N/A
Airport Dr. Antonio Agostinho Neto International Airport (FNBJ)
Time Latitude Longitude Altitude Speed Heading
2026-05-01 08:10 14.65602 -17.07700 302 ft 0 kts 270°
2026-05-01 08:29 14.65601 -17.07695 302 ft 2 kts 270°
2026-05-01 08:29 14.65601 -17.07679 302 ft 2 kts 272°
2026-05-01 08:29 14.65599 -17.07664 302 ft 2 kts 293°
2026-05-01 08:30 14.65598 -17.07663 302 ft 2 kts 295°
2026-05-01 08:30 14.65592 -17.07652 302 ft 2 kts 309°
2026-05-01 08:30 14.65581 -17.07641 302 ft 2 kts 326°
2026-05-01 08:30 14.65568 -17.07633 302 ft 2 kts 342°
2026-05-01 08:31 14.65553 -17.07630 302 ft 2 kts 359°
2026-05-01 08:31 14.65542 -17.07631 302 ft 2 kts 12°
2026-05-01 08:31 14.65538 -17.07632 302 ft 2 kts 17°
2026-05-01 08:32 14.65525 -17.07638 302 ft 2 kts 33°
2026-05-01 08:32 14.65519 -17.07642 302 ft 1 kts 38°
2026-05-01 08:32 14.65518 -17.07642 302 ft 0 kts 38°
2026-05-01 08:36 14.65521 -17.07641 302 ft 2 kts 38°
2026-05-01 08:36 14.65539 -17.07602 302 ft 10 kts 89°
2026-05-01 08:37 14.65534 -17.07518 302 ft 11 kts 89°
2026-05-01 08:37 14.65535 -17.07448 302 ft 8 kts 89°
2026-05-01 08:37 14.65536 -17.07400 302 ft 0 kts 88°
2026-05-01 08:41 14.65536 -17.07374 302 ft 7 kts 88°
2026-05-01 08:41 14.65539 -17.07309 302 ft 4 kts 87°
2026-05-01 08:41 14.65542 -17.07286 302 ft 3 kts 62°
2026-05-01 08:41 14.65559 -17.07276 302 ft 1 kts
2026-05-01 08:42 14.65566 -17.07277 302 ft 0 kts 359°
2026-05-01 08:43 14.65586 -17.07277 302 ft 10 kts 359°
2026-05-01 08:43 14.65872 -17.07279 302 ft 76 kts 360°
2026-05-01 08:43 14.66640 -17.07282 302 ft 144 kts 359°
2026-05-01 08:43 14.67854 -17.07280 380 ft 196 kts
2026-05-01 08:44 14.69218 -17.07277 1211 ft 197 kts 359°
2026-05-01 08:44 14.70577 -17.07321 2167 ft 198 kts 358°
2026-05-01 08:44 14.71952 -17.07349 2839 ft 199 kts
2026-05-01 08:44 14.73348 -17.07346 3455 ft 202 kts 360°
2026-05-01 08:45 14.74794 -17.07356 3835 ft 218 kts 359°
2026-05-01 08:45 14.76365 -17.07371 4311 ft 229 kts 360°
2026-05-01 08:45 14.77981 -17.07387 4950 ft 234 kts
2026-05-01 08:45 14.79583 -17.07171 5497 ft 238 kts 20°
2026-05-01 08:46 14.81017 -17.06300 6106 ft 242 kts 42°
2026-05-01 08:46 14.82019 -17.04878 6644 ft 251 kts 65°
2026-05-01 08:46 14.82377 -17.03122 7174 ft 258 kts 86°
2026-05-01 08:46 14.82357 -17.01263 7804 ft 259 kts 89°
2026-05-01 08:47 14.82337 -16.99351 8150 ft 272 kts 88°
2026-05-01 08:47 14.82343 -16.97366 8480 ft 284 kts 88°
2026-05-01 08:47 14.82357 -16.95315 9112 ft 286 kts 88°
2026-05-01 08:47 14.82374 -16.93254 9720 ft 288 kts 89°
2026-05-01 08:48 14.82391 -16.91198 10256 ft 293 kts 89°
2026-05-01 08:48 14.82403 -16.89031 10550 ft 309 kts 91°
2026-05-01 08:48 14.82157 -16.86768 10831 ft 324 kts 102°
2026-05-01 08:48 14.81490 -16.84496 10975 ft 346 kts 112°
2026-05-01 08:49 14.80482 -16.82148 11179 ft 364 kts 114°
2026-05-01 08:49 14.79413 -16.79720 11626 ft 375 kts 114°
2026-05-01 08:49 14.78346 -16.77272 12222 ft 380 kts 114°
2026-05-01 08:49 14.77442 -16.75191 12757 ft 383 kts 115°
2026-05-01 08:50 14.76346 -16.72665 13391 ft 386 kts 115°
2026-05-01 08:50 14.75261 -16.70158 13985 ft 390 kts 115°
2026-05-01 08:50 14.74132 -16.67551 14575 ft 394 kts 115°
2026-05-01 08:50 14.73016 -16.64972 15151 ft 398 kts 115°
2026-05-01 08:51 14.71889 -16.62367 15720 ft 402 kts 115°
2026-05-01 08:51 14.70741 -16.59716 16261 ft 406 kts 115°
2026-05-01 08:51 14.69580 -16.57032 16784 ft 410 kts 115°
2026-05-01 08:51 14.68407 -16.54324 17282 ft 415 kts 115°
2026-05-01 08:52 14.67227 -16.51600 17596 ft 425 kts 115°
2026-05-01 08:52 14.66001 -16.48769 17909 ft 435 kts 115°
2026-05-01 08:52 14.64754 -16.45892 18387 ft 439 kts 115°
2026-05-01 08:52 14.63519 -16.43043 18936 ft 441 kts 114°
2026-05-01 08:53 14.62258 -16.40138 19420 ft 444 kts 114°
2026-05-01 08:53 14.60985 -16.37203 19810 ft 450 kts 114°
2026-05-01 08:53 14.59713 -16.34274 20186 ft 455 kts 115°
2026-05-01 08:53 14.58403 -16.31255 20602 ft 459 kts 115°
2026-05-01 08:54 14.57106 -16.28269 21020 ft 462 kts 114°
2026-05-01 08:54 14.55779 -16.25216 21406 ft 466 kts 114°
2026-05-01 08:54 14.54461 -16.22183 21749 ft 470 kts 114°
2026-05-01 08:54 14.53111 -16.19079 22087 ft 475 kts 114°
2026-05-01 08:55 14.51747 -16.15944 22428 ft 479 kts 114°